TimeEST,TemperatureF,Dew PointF,Humidity,Sea Level PressureIn,VisibilityMPH,Wind Direction,Wind SpeedMPH,Gust SpeedMPH,PrecipitationIn,Events,Conditions,WindDirDegrees,DateUTC
12:54 AM,30.0,25.0,82,29.71,-9999.0,North,-9999.0,-,N/A,,Unknown,0,2013-03-02 05:54:00
1:54 AM,28.9,26.1,89,29.71,-9999.0,North,-9999.0,-,N/A,,Unknown,0,2013-03-02 06:54:00
2:54 AM,28.9,26.1,89,29.70,-9999.0,North,-9999.0,-,0.01,,Unknown,0,2013-03-02 07:54:00
3:54 AM,28.9,27.0,92,29.70,-9999.0,North,-9999.0,-,0.01,,Unknown,0,2013-03-02 08:54:00
4:54 AM,28.9,27.0,92,29.71,-9999.0,North,-9999.0,-,0.01,,Unknown,0,2013-03-02 09:54:00
5:54 AM,28.9,26.1,89,29.71,-9999.0,North,-9999.0,-,N/A,,Unknown,0,2013-03-02 10:54:00
6:54 AM,28.9,27.0,92,29.72,-9999.0,North,-9999.0,-,N/A,,Unknown,0,2013-03-02 11:54:00
7:54 AM,30.0,26.1,85,29.72,-9999.0,North,-9999.0,-,N/A,,Unknown,0,2013-03-02 12:54:00
8:54 AM,30.9,26.1,82,29.72,-9999.0,North,-9999.0,-,N/A,,Unknown,0,2013-03-02 13:54:00
9:54 AM,30.9,25.0,79,29.72,-9999.0,North,-9999.0,-,N/A,,Unknown,0,2013-03-02 14:54:00
10:54 AM,32.0,25.0,75,29.71,-9999.0,North,-9999.0,-,N/A,,Unknown,0,2013-03-02 15:54:00
11:54 AM,32.0,23.0,69,29.71,-9999.0,North,-9999.0,-,N/A,,Unknown,0,2013-03-02 16:54:00
12:54 PM,33.1,21.9,64,29.70,-9999.0,North,-9999.0,-,N/A,,Unknown,0,2013-03-02 17:54:00
1:54 PM,34.0,23.0,64,29.69,-9999.0,North,-9999.0,-,N/A,,Unknown,0,2013-03-02 18:54:00
2:54 PM,32.0,21.9,66,29.69,-9999.0,North,-9999.0,-,N/A,,Unknown,0,2013-03-02 19:54:00
3:54 PM,30.0,23.0,75,29.71,-9999.0,North,-9999.0,-,N/A,,Unknown,0,2013-03-02 20:54:00
4:54 PM,30.0,23.0,75,29.71,-9999.0,North,-9999.0,-,N/A,,Unknown,0,2013-03-02 21:54:00
5:54 PM,28.0,21.9,78,29.73,-9999.0,North,-9999.0,-,N/A,,Unknown,0,2013-03-02 22:54:00
6:54 PM,28.0,21.9,78,29.74,-9999.0,North,-9999.0,-,0.01,,Unknown,0,2013-03-02 23:54:00
7:54 PM,27.0,21.0,78,29.74,-9999.0,North,-9999.0,-,N/A,,Unknown,0,2013-03-03 00:54:00
8:54 PM,26.1,21.9,84,29.74,-9999.0,North,-9999.0,-,0.02,,Unknown,0,2013-03-03 01:54:00
9:54 PM,26.1,21.0,81,29.73,-9999.0,North,-9999.0,-,N/A,,Unknown,0,2013-03-03 02:54:00
10:54 PM,26.1,21.9,84,29.73,-9999.0,North,-9999.0,-,N/A,,Unknown,0,2013-03-03 03:54:00
11:54 PM,25.0,21.9,88,29.72,-9999.0,North,-9999.0,-,0.01,,Unknown,0,2013-03-03 04:54:00